Location: Caltech
(34.1382°N, 118.1253°W)
Time: 22:26:24
(UTC-07:00)

Courier 1B - Visible Passes

Search period start: 28 June 2017 00:00
Search period end: 08 July 2017 00:00
Orbit: 962 x 1209 km, 28.3° (Epoch: 28 June)

Date Brightness Start Highest point End Pass type
(mag) Time Alt. Az. Time Alt. Az. Time Alt. Az.
28 Jun 8.3 02:49:52 35° SE 02:49:52 35° SE 02:53:55 10° ESE visible
28 Jun 8.4 04:36:49 14° WSW 04:41:09 27° SSW 04:46:43 10° SE visible
28 Jun 8.8 22:01:36 10° SSW 22:04:58 21° S 22:04:58 21° S visible
29 Jun 9.8 02:00:14 10° ESE 02:00:14 10° ESE 02:00:17 10° ESE visible
29 Jun 8.1 03:47:12 33° SSW 03:47:34 33° SSW 03:53:24 10° SE visible
29 Jun 8.8 21:08:35 10° SSW 21:13:18 20° SSE 21:15:43 16° SE visible
29 Jun 9.1 23:00:32 10° SW 23:02:41 20° SW 23:02:41 20° SW visible
30 Jun 9.0 02:57:48 20° SE 02:57:48 20° SE 02:59:59 10° SE visible
30 Jun 8.9 04:44:47 14° SW 04:47:21 18° SSW 04:51:32 10° SSE visible
30 Jun 8.0 22:07:00 10° SW 22:13:07 35° SSE 22:13:14 35° SSE visible
01 Jul 8.8 03:55:35 20° S 03:55:35 20° S 03:58:43 10° SSE visible
01 Jul 8.4 21:13:33 10° SW 21:19:30 30° SSE 21:23:33 17° ESE visible
01 Jul 8.4 23:06:36 10° WSW 23:10:30 33° SW 23:10:30 33° SW visible
02 Jul 7.8 22:12:53 10° WSW 22:19:26 45° S 22:20:35 42° SE visible
03 Jul 9.6 00:06:41 10° WSW 00:07:30 14° WSW 00:07:30 14° WSW visible
03 Jul 8.0 21:19:11 10° SW 21:25:46 41° SSE 21:30:29 17° ESE visible
03 Jul 8.2 23:12:52 10° WSW 23:17:24 39° SW 23:17:24 39° SW visible
04 Jul 8.3 20:25:35 10° SW 20:32:04 36° SSE 20:38:13 10° E visible
04 Jul 7.7 22:19:01 10° WSW 22:25:47 52° S 22:27:09 45° SE visible
05 Jul 9.6 00:13:07 10° W 00:14:03 14° WSW 00:14:03 14° WSW visible
05 Jul 7.9 21:25:11 10° WSW 21:32:04 50° S 21:36:46 19° ESE visible
05 Jul 8.4 23:19:13 10° W 23:23:40 37° SW 23:23:40 37° SW visible
06 Jul 8.1 20:31:23 10° WSW 20:38:21 46° S 20:44:53 10° E visible
06 Jul 7.7 22:25:19 10° WSW 22:32:09 53° S 22:33:12 49° SSE visible
07 Jul 9.8 00:19:42 10° W 00:20:06 12° W 00:20:06 12° W visible
07 Jul 7.8 21:31:24 10° WSW 21:38:26 54° S 21:42:41 23° ESE visible
07 Jul 8.7 23:25:42 10° W 23:29:33 30° WSW 23:29:33 30° WSW visible
